This demonstration page uses our WeatherBlox Daily Observations layout. Learn more.

Left ArrowRight Arrow

Hourly Observations for May 20, 2021

Temp ( °F °C ) Dew Point ( °F °C ) Humidity (%) Winds ( mph kmh ) Pressure ( in mb ) Visibility ( mi km ) Precip ( " mm )
12:53 am 00:53 Clear 62 16.7 61 16.1 96 96 N N/A 30.27 1025 7 11 N/A
1:53 am 01:53 Clear with Mist and Fog 61 16.1 60 15.6 97 97 N N/A 30.28 1025 6 10 N/A
2:53 am 02:53 Clear with Mist and Fog 61 16.1 59 15 93 93 N N/A 30.27 1025 5 8 N/A
3:53 am 03:53 Clear with Mist and Fog 60 15.6 59 15 96 96 N N/A 30.27 1025 4 6 N/A
4:41 am 04:41 Clear with Mist and Fog 59 15 58 14.4 96 96 N N/A 30.29 1026 2 2 N/A
4:53 am 04:53 Clear with Mist and Fog 59 15 58 14.4 96 96 N N/A 30.28 1026 3 4 N/A
5:00 am 05:00 Clear with Mist and Fog 59 15 58 14.4 96 96 N N/A 30.29 1026 4 6 N/A
5:08 am 05:08 Clear with Mist and Fog 58 14.4 57 13.9 97 97 N N/A 30.30 1026 3 4 N/A
5:16 am 05:16 Clear with Mist and Fog 58 14.4 57 13.9 97 97 N N/A 30.30 1026 6 10 N/A
5:53 am 05:53 Clear with Mist and Fog 60 15.6 59 15 96 96 N N/A 30.31 1026 4 6 N/A
6:33 am 06:33 Sunny with Mist and Fog 59 15 58 14.4 96 96 N N/A 30.32 1027 2 3 N/A
6:53 am 06:53 Sunny with Mist and Fog 59 15 58 14.4 96 96 N N/A 30.32 1027 2 3 N/A
7:09 am 07:09 Sunny with Mist and Fog 58 14.4 57 13.9 97 97 N N/A 30.34 1027 5 8 N/A
7:53 am 07:53 Sunny with Mist and Fog 62 16.7 60 15.6 93 93 N N/A 30.34 1028 5 8 N/A
8:53 am 08:53 Sunny 68 20 62 16.7 81 81 N N/A 30.35 1028 8 13 N/A
9:53 am 09:53 Sunny 74 23.3 63 17.2 69 69 N N/A 30.35 1028 10 16 N/A
10:53 am 10:53 Sunny 80 26.7 62 16.7 54 54 VRB 5 7 30.34 1028 10 16 N/A
11:53 am 11:53 Sunny 81 27.2 60 15.6 49 49 WNW 7 11 30.35 1028 10 16 N/A
12:53 pm 12:53 Sunny 83 28.3 60 15.6 46 46 N N/A 30.34 1027 10 16 N/A
1:53 pm 13:53 Sunny 84 28.9 60 15.6 44 44 VRB 3 6 30.31 1027 10 16 N/A
2:53 pm 14:53 Mostly Sunny 84 28.9 59 15 43 43 N N/A 30.30 1026 10 16 N/A
3:53 pm 15:53 Mostly Cloudy 83 28.3 55 12.8 38 38 ESE 6 9 30.28 1025 10 16 N/A
4:53 pm 16:53 Mostly Sunny 86 30 57 13.9 37 37 VRB 3 6 30.27 1025 10 16 N/A
5:53 pm 17:53 Sunny 85 29.4 57 13.9 39 39 VRB 3 6 30.27 1025 10 16 N/A
6:53 pm 18:53 Sunny 84 28.9 57 13.9 40 40 VRB 3 6 30.27 1025 10 16 N/A
7:53 pm 19:53 Mostly Cloudy 82 27.8 57 13.9 42 42 VRB 5 7 30.27 1025 10 16 N/A
8:53 pm 20:53 Clear 77 25 58 14.4 52 52 N N/A 30.29 1026 10 16 N/A
9:53 pm 21:53 Clear 69 20.6 61 16.1 76 76 N N/A 30.30 1026 10 16 N/A
10:53 pm 22:53 Clear 66 18.9 63 17.2 90 90 N N/A 30.32 1027 10 16 N/A
11:53 pm 23:53 Clear 64 17.8 61 16.1 90 90 N N/A 30.32 1027 10 16 N/A

Powered by AerisWeather